GW2276 Weather Reports


Display with metric or nautical units.
time (UTC)temp
F
wind
direction
speed
MPH
gust
MPH
rain 1hr
in
rain 24hr
in
rain mn
in
humidity
%
barometer
mb
20260507071036 40 70 0.0 1.0 0.00 0.58 0.00 88 1011.4
20260507070536 41 70 0.0 1.0 0.00 0.58 0.00 88 1011.4
20260507070048 41 64 0.0 1.0 0.00 0.58 0.00 87 1011.5
20260507065540 41 0 0.0 1.0 0.00 0.58 0.00 87 1011.4
20260507065036 42 67 0.0 1.0 0.00 0.58 0.00 86 1011.4
20260507064551 42 67 0.0 1.0 0.00 0.58 0.00 86 1011.4
20260507064038 42 0 0.0 2.0 0.00 0.58 0.00 84 1011.4
20260507063535 42 307 0.0 2.0 0.00 0.58 0.00 84 1011.5
20260507063049 42 61 0.0 2.0 0.00 0.58 0.00 84 1011.7
20260507062536 42 0 0.0 2.0 0.00 0.58 0.00 84 1011.6
20260507062036 42 6 0.0 2.0 0.00 0.58 0.00 84 1011.7
20260507061552 42 39 1.0 2.0 0.00 0.58 0.00 84 1011.7
20260507061036 42 357 1.0 3.0 0.00 0.58 0.00 84 1011.8
20260507060535 42 24 1.0 3.0 0.00 0.58 0.00 83 1011.9
20260507060043 42 8 1.0 3.0 0.00 0.58 0.00 83 1011.8
20260507055537 42 44 1.0 3.0 0.00 0.58 0.00 83 1011.8
20260507055036 42 332 1.0 3.0 0.00 0.58 0.00 84 1011.7
20260507054541 42 35 1.0 3.0 0.00 0.58 0.00 84 1011.7
20260507054040 43 328 1.0 5.0 0.00 0.58 0.00 84 1011.8
20260507053537 43 338 1.0 5.0 0.00 0.58 0.00 84 1011.7
20260507053041 43 335 2.0 5.0 0.00 0.58 0.00 83 1011.7
20260507052539 43 17 2.0 5.0 0.00 0.58 0.00 84 1011.8
20260507052036 43 332 1.0 6.0 0.00 0.58 0.00 84 1011.8
20260507051552 43 347 1.0 6.0 0.00 0.58 0.00 84 1011.8
20260507051036 43 310 2.0 5.0 0.00 0.58 0.00 84 1011.8
20260507050536 43 28 2.0 5.0 0.00 0.58 0.00 85 1011.9
20260507050050 43 19 2.0 4.0 0.00 0.58 0.00 86 1012.0
20260507045538 43 31 1.0 4.0 0.00 0.58 0.00 86 1011.8
20260507045036 43 15 1.0 4.0 0.00 0.58 0.00 87 1012.0
20260507044555 43 290 1.0 2.0 0.00 0.58 0.00 89 1012.0
20260507044036 43 320 1.0 2.0 0.00 0.58 0.00 89 1011.9
20260507043536 43 344 1.0 4.0 0.00 0.58 0.00 89 1011.9
20260507043055 43 316 0.0 4.0 0.00 0.58 0.00 89 1011.9
20260507042537 43 357 0.0 3.0 0.00 0.58 0.00 90 1011.6
20260507042039 43 37 2.0 3.0 0.00 0.58 0.00 90 1011.6
20260507041542 44 32 2.0 3.0 0.00 0.58 0.00 90 1011.7
20260507041036 44 6 1.0 3.0 0.00 0.58 0.00 90 1011.7
20260507040537 44 32 2.0 4.0 0.00 0.58 0.00 90 1011.7
20260507040042 44 333 1.0 4.0 0.00 0.58 0.00 90 1011.6
20260507035536 44 307 2.0 6.0 0.00 0.58 0.58 90 1011.4
20260507035036 44 18 2.0 6.0 0.00 0.58 0.58 90 1011.3
20260507034551 44 34 1.0 4.0 0.00 0.58 0.58 90 1011.2
20260507034036 44 30 1.0 4.0 0.00 0.58 0.58 90 1011.3
20260507033536 44 16 1.0 4.0 0.00 0.58 0.58 90 1011.3
20260507033044 44 359 1.0 4.0 0.00 0.58 0.58 90 1011.3
20260507032536 44 29 1.0 5.0 0.00 0.58 0.58 90 1011.2
20260507032036 44 42 1.0 5.0 0.00 0.58 0.58 90 1011.3
20260507031549 44 358 2.0 6.0 0.00 0.58 0.58 90 1011.3
20260507031036 45 13 2.0 6.0 0.00 0.58 0.58 91 1011.4
20260507030538 45 31 2.0 6.0 0.00 0.58 0.58 91 1011.3
20260507030049 45 347 2.0 6.0 0.00 0.58 0.58 91 1011.2
20260507025536 45 352 2.0 7.0 0.00 0.58 0.58 92 1011.2
20260507025040 45 340 2.0 7.0 0.00 0.58 0.58 92 1011.2
20260507024553 45 298 2.0 6.0 0.00 0.58 0.58 93 1011.2
20260507024036 45 359 2.0 6.0 0.00 0.58 0.58 94 1011.3
20260507023536 44 285 2.0 5.0 0.00 0.58 0.58 95 1011.2
20260507023103 44 86 1.0 3.0 0.00 0.58 0.58 94 1010.9
20260507022537 44 30 0.0 2.0 0.00 0.58 0.58 94 1011.1
20260507022038 44 152 1.0 2.0 0.00 0.58 0.58 94 1011.0
20260507021550 44 295 0.0 2.0 0.00 0.58 0.58 94 1010.9
20260507021036 44 224 0.0 2.0 0.00 0.58 0.58 94 1010.9
20260507020536 44 0 0.0 2.0 0.00 0.58 0.58 94 1010.8
20260507020057 44 0 0.0 2.0 0.00 0.58 0.58 94 1011.0
20260507015535 44 207 0.0 1.0 0.00 0.63 0.58 94 1010.9
20260507015036 44 0 0.0 1.0 0.00 0.63 0.58 94 1010.9
20260507014546 44 0 0.0 1.0 0.00 0.63 0.58 94 1010.8
20260507014037 44 0 0.0 1.0 0.00 0.63 0.58 94 1010.8
20260507013538 44 0 0.0 1.0 0.00 0.63 0.58 94 1010.8
20260507013048 44 0 0.0 1.0 0.00 0.63 0.58 94 1010.9
20260507012539 44 0 0.0 1.0 0.00 0.63 0.58 94 1010.9
20260507012036 44 0 0.0 1.0 0.00 0.63 0.58 94 1010.8
20260507011550 44 0 0.0 1.0 0.00 0.63 0.58 94 1010.9
20260507011035 44 0 0.0 0.0 0.00 0.63 0.58 94 1010.6
20260507010536 44 0 0.0 1.0 0.00 0.63 0.58 94 1010.5
20260507010050 44 0 0.0 1.0 0.00 0.63 0.58 94 1010.6
20260507005536 44 323 0.0 0.0 0.00 0.63 0.58 94 1010.7
20260507005035 44 0 0.0 0.0 0.00 0.63 0.58 94 1010.6
20260507004551 44 0 0.0 0.0 0.00 0.63 0.58 94 1010.7
20260507004035 44 0 0.0 0.0 0.00 0.63 0.58 94 1010.5
20260507003534 44 0 0.0 0.0 0.00 0.63 0.58 93 1010.5
20260507003103 44 0 0.0 0.0 0.00 0.63 0.58 93 1010.4
20260507002536 44 0 0.0 0.0 0.00 0.63 0.58 93 1010.3
20260507002036 44 0 0.0 0.0 0.00 0.63 0.58 93 1010.1
20260507001608 44 0 0.0 0.0 0.00 0.63 0.58 93 1009.9
20260507001035 44 0 0.0 0.0 0.00 0.63 0.58 93 1010.0
20260507000538 44 0 0.0 0.0 0.00 0.63 0.58 92 1010.2
20260507000045 44 0 0.0 0.0 0.00 0.63 0.58 92 1010.2
20260506235535 44 0 0.0 0.0 0.00 0.73 0.58 92 1010.1
20260506235035 45 0 0.0 0.0 0.00 0.73 0.58 92 1010.0
20260506234554 45 0 0.0 0.0 0.00 0.73 0.58 92 1009.8
20260506234035 45 0 0.0 0.0 0.00 0.73 0.58 91 1009.8
20260506233536 45 0 0.0 0.0 0.00 0.73 0.58 91 1009.9
20260506233041 45 0 0.0 0.0 0.00 0.73 0.58 91 1009.9
20260506232535 45 0 0.0 1.0 0.00 0.73 0.58 91 1010.0
20260506232035 45 323 0.0 1.0 0.00 0.73 0.58 90 1010.0
20260506231549 45 0 0.0 0.0 0.00 0.73 0.58 90 1009.9
20260506231033 45 0 0.0 0.0 0.00 0.73 0.58 90 1009.9
20260506230532 46 0 0.0 0.0 0.00 0.73 0.58 90 1009.8
20260506230058 46 0 0.0 0.0 0.00 0.73 0.58 90 1009.8
20260506225536 46 325 0.0 1.0 0.00 0.73 0.58 90 1009.7
20260506225033 46 325 0.0 1.0 0.00 0.73 0.58 90 1009.6
20260506224548 46 325 0.0 1.0 0.00 0.73 0.58 90 1009.5
20260506224032 46 0 0.0 0.0 0.00 0.73 0.58 91 1009.6
20260506223532 46 0 0.0 1.0 0.00 0.73 0.58 91 1009.5
20260506223049 46 0 0.0 2.0 0.00 0.73 0.58 91 1009.5
20260506222533 46 3 0.0 2.0 0.00 0.73 0.58 90 1009.4
20260506222036 46 337 0.0 2.0 0.00 0.73 0.58 90 1009.3
20260506221603 46 37 0.0 3.0 0.00 0.73 0.58 90 1009.5
20260506221035 46 51 0.0 3.0 0.00 0.73 0.58 91 1009.6
20260506220533 46 51 1.0 3.0 0.00 0.73 0.58 90 1009.7
20260506220051 46 30 0.0 2.0 0.00 0.73 0.58 91 1009.8
20260506215537 46 0 0.0 4.0 0.00 0.73 0.58 91 1009.7
20260506215035 46 55 0.0 4.0 0.00 0.73 0.58 91 1009.7
20260506214544 46 330 2.0 4.0 0.00 0.73 0.58 91 1009.7
20260506214034 46 32 1.0 2.0 0.00 0.73 0.58 91 1009.5
20260506213537 46 31 1.0 4.0 0.00 0.73 0.58 91 1009.7
20260506213043 46 41 1.0 4.0 0.00 0.73 0.58 91 1009.6
20260506212536 45 32 1.0 4.0 0.00 0.73 0.58 91 1009.7
20260506212033 45 354 1.0 6.0 0.00 0.73 0.58 91 1009.7
20260506211548 45 47 2.0 6.0 0.00 0.73 0.58 91 1009.8
20260506211035 46 55 2.0 4.0 0.00 0.73 0.58 91 1009.6
20260506210538 45 356 1.0 4.0 0.00 0.73 0.58 92 1009.6
20260506210052 45 354 2.0 4.0 0.00 0.73 0.58 92 1009.6
20260506205534 45 1 2.0 6.0 0.00 0.80 0.58 92 1009.6
20260506205033 45 32 2.0 9.0 0.00 0.80 0.58 92 1009.5
20260506204547 45 357 3.0 9.0 0.00 0.80 0.58 92 1009.5
20260506204034 45 46 4.0 9.0 0.00 0.80 0.58 92 1009.5
20260506203532 45 347 3.0 6.0 0.00 0.80 0.58 92 1009.5
20260506203044 45 6 2.0 7.0 0.00 0.80 0.58 92 1009.4
20260506202536 45 32 3.0 7.0 0.00 0.80 0.58 92 1009.3
20260506202036 45 32 3.0 7.0 0.00 0.80 0.58 93 1009.4
20260506201542 45 356 3.0 7.0 0.00 0.80 0.58 93 1009.3
20260506201035 45 355 2.0 8.0 0.00 0.80 0.58 93 1009.2
20260506200539 45 43 4.0 8.0 0.00 0.80 0.58 93 1009.3
20260506200040 44 18 3.0 9.0 0.00 0.80 0.58 94 1009.3
20260506195537 44 333 4.0 9.0 0.00 0.87 0.58 94 1009.2
20260506195037 44 27 4.0 8.0 0.00 0.87 0.58 94 1009.1
20260506194540 44 13 2.0 9.0 0.00 0.87 0.58 94 1009.2
20260506194038 44 316 3.0 9.0 0.00 0.87 0.58 94 1009.1
20260506193537 44 29 6.0 9.0 0.00 0.87 0.58 94 1008.9
20260506193049 44 32 5.0 9.0 0.00 0.87 0.58 94 1009.0
20260506192537 45 21 5.0 8.0 0.00 0.87 0.58 94 1009.0
20260506192037 45 57 3.0 9.0 0.00 0.87 0.58 94 1008.8
20260506191545 45 314 4.0 9.0 0.00 0.87 0.58 94 1008.7
20260506191037 45 43 5.0 8.0 0.00 0.87 0.58 94 1008.8
20260506190538 45 329 4.0 8.0 0.00 0.87 0.58 94 1008.7
20260506190045 45 14 2.0 8.0 0.00 0.87 0.58 94 1008.8
20260506185537 45 13 3.0 9.0 0.00 0.87 0.58 94 1008.6
20260506185037 45 333 5.0 9.0 0.00 0.87 0.58 94 1008.5
20260506184551 45 352 5.0 9.0 0.00 0.87 0.58 94 1008.6
20260506184038 45 30 3.0 10.0 0.00 0.87 0.58 94 1008.6
20260506183540 45 41 4.0 10.0 0.00 0.87 0.58 94 1008.8
20260506183053 45 45 5.0 11.0 0.00 0.87 0.58 94 1008.7
20260506182537 45 46 6.0 11.0 0.00 0.87 0.58 94 1008.5
20260506182038 45 5 6.0 11.0 0.00 0.87 0.58 94 1008.5
20260506181549 45 350 4.0 8.0 0.00 0.87 0.58 94 1008.5
20260506181037 45 1 3.0 8.0 0.00 0.87 0.58 95 1008.5
20260506180540 45 321 3.0 8.0 0.00 0.87 0.58 95 1008.5
20260506180045 44 12 3.0 6.0 0.00 0.87 0.58 95 1008.3
20260506175536 44 358 3.0 8.0 0.00 0.87 0.58 95 1008.2
20260506175040 44 344 3.0 9.0 0.00 0.87 0.58 95 1008.1
20260506174548 44 340 3.0 9.0 0.00 0.87 0.58 95 1008.0
20260506174037 44 355 5.0 9.0 0.00 0.87 0.58 95 1008.1
20260506173537 44 356 4.0 9.0 0.01 0.87 0.58 95 1008.0
20260506173047 44 44 3.0 7.0 0.01 0.87 0.58 96 1007.8
20260506172538 44 336 3.0 7.0 0.01 0.87 0.58 95 1007.8
20260506172037 44 345 3.0 7.0 0.01 0.87 0.58 96 1007.7
20260506171549 44 323 4.0 7.0 0.01 0.87 0.58 96 1007.7
20260506171037 44 328 3.0 6.0 0.01 0.87 0.58 96 1007.7
20260506170538 44 9 3.0 6.0 0.01 0.87 0.58 96 1007.7
20260506170054 44 10 3.0 9.0 0.02 0.87 0.58 96 1007.7
20260506165537 44 6 4.0 9.0 0.02 0.87 0.58 96 1007.9
20260506165037 44 342 4.0 9.0 0.02 0.87 0.58 96 1007.9
20260506164555 44 321 4.0 9.0 0.03 0.87 0.58 96 1007.8
20260506164036 44 30 4.0 9.0 0.03 0.87 0.58 96 1007.7
20260506163537 44 350 3.0 9.0 0.03 0.86 0.57 97 1007.6
20260506163045 43 316 3.0 9.0 0.03 0.86 0.57 96 1007.6
20260506162539 43 344 5.0 9.0 0.03 0.86 0.57 96 1007.7
20260506162041 43 3 4.0 9.0 0.03 0.86 0.57 96 1007.7
20260506161540 43 319 3.0 7.0 0.04 0.86 0.57 96 1007.7
20260506161038 43 39 3.0 9.0 0.04 0.86 0.57 96 1007.9
20260506160537 43 57 4.0 9.0 0.04 0.85 0.56 96 1007.8
20260506160048 43 321 4.0 9.0 0.04 0.85 0.56 96 1007.8
20260506155537 43 347 3.0 6.0 0.05 0.85 0.56 96 1007.8
20260506155037 43 15 3.0 11.0 0.05 0.85 0.56 96 1007.7
20260506154554 43 322 4.0 11.0 0.04 0.84 0.55 96 1007.7
20260506154037 43 333 2.0 6.0 0.04 0.84 0.55 96 1007.7
20260506153539 43 41 2.0 7.0 0.03 0.83 0.54 96 1007.7
20260506153044 43 316 3.0 7.0 0.03 0.83 0.54 96 1007.7
20260506152537 43 336 3.0 7.0 0.03 0.83 0.54 96 1007.7
20260506152037 43 354 2.0 7.0 0.03 0.83 0.54 96 1007.8
20260506151542 43 349 3.0 5.0 0.03 0.82 0.52 96 1007.8
20260506151036 43 18 2.0 6.0 0.03 0.82 0.52 96 1007.6
20260506150536 42 37 3.0 6.0 0.03 0.81 0.52 96 1007.8
20260506150100 42 348 3.0 6.0 0.03 0.81 0.52 96 1007.8
20260506145538 42 326 3.0 5.0 0.02 0.80 0.51 95 1007.7
20260506145038 42 326 3.0 5.0 0.03 0.80 0.51 95 1007.5
20260506144550 43 26 2.0 4.0 0.03 0.80 0.51 95 1007.4
20260506144037 43 335 3.0 5.0 0.03 0.80 0.51 96 1007.1
20260506143537 42 349 1.0 7.0 0.04 0.80 0.51 95 1007.0
20260506143045 42 321 2.0 7.0 0.04 0.80 0.51 95 1007.0
20260506142537 42 358 2.0 6.0 0.04 0.80 0.51 95 1007.2
20260506142036 42 37 3.0 6.0 0.04 0.80 0.51 95 1007.1
20260506141544 43 357 2.0 5.0 0.04 0.79 0.50 95 1007.1
20260506141039 42 5 1.0 7.0 0.04 0.79 0.50 95 1007.2
20260506140538 42 15 3.0 8.0 0.04 0.78 0.49 95 1007.1
20260506140059 42 25 4.0 8.0 0.04 0.78 0.49 95 1007.2
20260506135536 42 358 2.0 8.0 0.05 0.78 0.49 95 1007.5
20260506135036 42 339 3.0 6.0 0.05 0.77 0.48 95 1007.2
20260506134554 42 338 1.0 9.0 0.06 0.77 0.48 95 1007.3
20260506134038 42 1 4.0 9.0 0.07 0.77 0.48 95 1007.3
20260506133537 43 352 2.0 9.0 0.07 0.76 0.47 95 1007.1
20260506133104 43 1 2.0 10.0 0.08 0.76 0.47 95 1007.2
20260506132537 43 325 3.0 10.0 0.09 0.76 0.47 95 1007.2
20260506132039 43 352 5.0 10.0 0.10 0.76 0.47 95 1007.4
20260506131545 43 347 4.0 8.0 0.10 0.75 0.46 95 1007.3
20260506131037 43 338 3.0 8.0 0.10 0.75 0.46 95 1007.4
20260506130537 43 330 3.0 8.0 0.10 0.74 0.45 95 1007.4
20260506130044 43 29 4.0 8.0 0.11 0.74 0.45 95 1007.6
20260506125537 43 356 5.0 8.0 0.10 0.73 0.44 95 1007.5
20260506125036 43 351 1.0 12.0 0.10 0.72 0.43 95 1007.6
20260506124542 43 347 4.0 12.0 0.10 0.71 0.42 95 1007.4
20260506124036 43 56 6.0 10.0 0.10 0.70 0.41 95 1007.3
20260506123542 43 345 3.0 7.0 0.10 0.69 0.40 95 1007.4
20260506123042 43 347 4.0 7.0 0.09 0.68 0.39 95 1007.4
20260506122536 43 334 2.0 6.0 0.09 0.67 0.38 95 1007.3
20260506122040 43 342 3.0 7.0 0.09 0.66 0.37 95 1007.3
20260506121557 43 332 4.0 7.0 0.08 0.65 0.36 95 1007.2
20260506121037 43 340 2.0 4.0 0.09 0.65 0.36 95 1007.1
20260506120537 43 281 2.0 7.0 0.09 0.64 0.35 95 1007.0
20260506120100 43 344 2.0 7.0 0.09 0.63 0.34 95 1006.8
20260506115537 43 347 2.0 5.0 0.10 0.63 0.34 95 1006.9
20260506115036 43 327 3.0 7.0 0.09 0.62 0.33 95 1007.1
20260506114551 43 350 2.0 7.0 0.09 0.61 0.32 95 1006.8
20260506114038 43 345 4.0 7.0 0.09 0.60 0.31 95 1007.0
20260506113538 43 26 4.0 7.0 0.09 0.58 0.30 95 1006.9
20260506113051 43 3 3.0 8.0 0.10 0.58 0.30 95 1007.0
20260506112540 44 302 2.0 8.0 0.10 0.58 0.29 95 1006.9
20260506112037 44 324 4.0 8.0 0.10 0.57 0.28 95 1006.8
20260506111548 44 339 2.0 6.0 0.11 0.57 0.28 95 1006.6
20260506111037 44 319 2.0 8.0 0.10 0.56 0.27 95 1006.6
20260506110537 44 359 3.0 8.0 0.10 0.55 0.26 95 1006.5
20260506110107 44 342 4.0 8.0 0.09 0.54 0.25 95 1006.7
20260506105538 44 321 3.0 8.0 0.08 0.52 0.24 95 1006.7
20260506105036 44 4 5.0 10.0 0.09 0.52 0.24 95 1006.7
20260506104557 44 340 4.0 11.0 0.08 0.52 0.23 95 1006.7
20260506104036 44 4 5.0 12.0 0.08 0.51 0.22 95 1006.9
20260506103537 44 23 6.0 12.0 0.07 0.50 0.21 95 1006.8
20260506103047 44 294 4.0 9.0 0.06 0.49 0.20 95 1007.0
20260506102537 45 6 5.0 9.0 0.05 0.48 0.19 94 1006.6
20260506102037 45 39 4.0 7.0 0.04 0.47 0.18 94 1006.6
20260506101541 45 319 4.0 7.0 0.04 0.46 0.17 94 1006.5
20260506101037 46 297 2.0 5.0 0.04 0.46 0.17 94 1006.4
20260506100536 46 352 2.0 5.0 0.03 0.45 0.16 95 1006.3
20260506100058 46 332 1.0 5.0 0.04 0.45 0.16 95 1006.2
20260506095536 46 336 2.0 6.0 0.05 0.45 0.16 95 1006.1
20260506095036 46 35 2.0 6.0 0.04 0.44 0.15 95 1006.2
20260506094544 46 51 2.0 7.0 0.05 0.44 0.15 95 1006.2
20260506094036 46 358 4.0 7.0 0.05 0.43 0.14 95 1006.5
20260506093537 46 40 3.0 7.0 0.06 0.43 0.14 95 1006.4
20260506093043 46 41 3.0 6.0 0.07 0.43 0.14 95 1006.6
20260506092537 47 27 2.0 6.0 0.07 0.43 0.14 96 1006.6
20260506092037 46 27 3.0 5.0 0.09 0.43 0.14 96 1006.7
20260506091542 46 0 0.0 4.0 0.09 0.42 0.13 96 1006.9
20260506091036 46 325 1.0 6.0 0.10 0.42 0.13 96 1006.9
20260506090536 46 325 0.0 6.0 0.09 0.41 0.12 96 1007.0
20260506090042 46 53 3.0 6.0 0.09 0.41 0.12 95 1006.9
20260506085536 46 212 2.0 3.0 0.09 0.40 0.11 95 1007.3
20260506085036 46 334 1.0 3.0 0.08 0.39 0.10 95 1007.2
20260506084611 46 42 2.0 6.0 0.08 0.39 0.10 95 1007.2
20260506084036 46 360 2.0 6.0 0.07 0.38 0.09 95 1007.3
20260506083536 46 354 3.0 9.0 0.07 0.37 0.08 95 1007.3
20260506083045 46 57 5.0 9.0 0.06 0.36 0.07 95 1007.3
20260506082536 46 328 4.0 10.0 0.06 0.36 0.07 95 1007.5
20260506082036 46 31 5.0 10.0 0.04 0.34 0.05 95 1007.5
20260506081552 46 34 4.0 10.0 0.03 0.33 0.04 95 1007.5
20260506081037 46 360 5.0 10.0 0.03 0.32 0.03 95 1007.7
20260506080537 46 2 2.0 4.0 0.03 0.32 0.03 95 1007.4
20260506073047 46 46 1.0 2.0 0.01 0.30 0.01 95 1006.8
20260506072536 46 0 0.0 1.0 0.01 0.30 0.01 95 1006.9
20260506072036 47 255 0.0 0.0 0.01 0.30 0.01 95 1006.9
20260506071545 47 0 0.0 0.0 0.00 0.29 0.00 95 1007.1